Selinsgrove, PA

1:10 PM EDT on July 28, 2017 (GMT -0400)
Penn Valley

Weather History for KSEG - December, 2011

Change the Weather History Date:

Sunday, December 11, 2011

  Actual Average (KIPT) Record (KIPT)
Temperature  
Mean Temperature 28 °F -  
Max Temperature 37 °F 39 °F 64 °F (1912)
Min Temperature 19 °F 25 °F -5 °F (1977)
Degree Days  
Heating Degree Days 37    
Moisture  
Dew Point 19 °F    
Average Humidity 74    
Maximum Humidity 92    
Minimum Humidity 42    
Precipitation  
Precipitation 0.00 in - - ()
Sea Level Pressure  
Sea Level Pressure 30.62 in    
Wind  
Wind Speed 0 mph (SE)    
Max Wind Speed 5 mph    
Max Gust Speed -    
Visibility 9 miles    
Events      
Averages and records for this station are not official NWS values.
T = Trace of Precipitation, MM = Missing Value Source: NWS Daily Summary

Daily Weather History Graph

Daily Weather History Graph

Search for Another Location

Airport or City:

Trip Planner

Search our weather history database for the weather conditions in past years. The results will help you decide how hot, cold, wet, or windy it might be!

Date:

Astronomy

Dec. 11, 2011 Rise Set
Actual Time 7:21 AM EST 4:39 PM EST
Civil Twilight 6:50 AM EST 5:10 PM EST
Nautical Twilight 6:16 AM EST 5:45 PM EST
Astronomical Twilight 5:42 AM EST 6:18 PM EST
Moon 5:47 PM EST (12/11) 8:08 AM EST (12/11)
Length of Visible Light 10h 20m
Length of Day
9h 18m
Full, 99% of the Moon is Illuminated
Dec 11
Full
Dec 17
Last Quarter
Dec 24
New
Jan 1
First Quarter
Jan 9
Full

Hourly Weather History & Observations

Time (EST) Temp. Windchill Dew Point Humidity Pressure Visibility Wind Dir Wind Speed Gust Speed Precip Events Conditions
12:53 AM 23.0 °F - 19.0 °F 85% 30.55 in 10.0 mi Calm Calm - N/A   Clear
1:53 AM 21.9 °F - 19.0 °F 89% 30.56 in 10.0 mi Calm Calm - N/A   Clear
2:53 AM 21.9 °F - 18.0 °F 85% 30.57 in 10.0 mi Calm Calm - N/A   Clear
3:53 AM 21.9 °F - 18.0 °F 85% 30.58 in 10.0 mi Calm Calm - N/A   Clear
4:53 AM 21.0 °F - 18.0 °F 88% 30.59 in 9.0 mi Calm Calm - N/A   Clear
5:53 AM 19.9 °F - 17.1 °F 89% 30.61 in 7.0 mi Calm Calm - N/A   Clear
6:53 AM 19.9 °F - 17.1 °F 89% 30.63 in 8.0 mi Calm Calm - N/A   Clear
7:53 AM 19.9 °F - 18.0 °F 92% 30.65 in 6.0 mi Calm Calm - N/A   Clear
8:53 AM 25.0 °F - 21.0 °F 85% 30.67 in 8.0 mi Calm Calm - N/A   Clear
10:53 AM 33.1 °F - 21.0 °F 61% 30.69 in 10.0 mi Calm Calm - N/A   Clear
11:53 AM 34.0 °F - 18.0 °F 52% 30.66 in 10.0 mi Calm Calm - N/A   Clear
12:53 PM 36.0 °F - 17.1 °F 46% 30.64 in 10.0 mi Calm Calm - N/A   Clear
1:53 PM 37.0 °F 33.3 °F 16.0 °F 42% 30.62 in 10.0 mi Variable 4.6 mph - N/A   Clear
2:53 PM 37.0 °F 33.3 °F 18.0 °F 46% 30.61 in 10.0 mi SE 4.6 mph - N/A   Clear
3:53 PM 36.0 °F 32.1 °F 17.1 °F 46% 30.61 in 10.0 mi SSE 4.6 mph - N/A   Clear
4:53 PM 32.0 °F - 19.9 °F 61% 30.60 in 10.0 mi Calm Calm - N/A   Clear
5:53 PM 28.9 °F - 19.9 °F 69% 30.60 in 10.0 mi Calm Calm - N/A   Clear
6:53 PM 27.0 °F - 21.0 °F 78% 30.61 in 10.0 mi Calm Calm - N/A   Clear
7:53 PM 25.0 °F - 21.0 °F 85% 30.63 in 10.0 mi Calm Calm - N/A   Clear
8:53 PM 25.0 °F - 21.0 °F 85% 30.64 in 10.0 mi Calm Calm - N/A   Clear
9:53 PM 24.1 °F - 21.0 °F 88% 30.63 in 8.0 mi Calm Calm - N/A   Clear
10:53 PM 24.1 °F - 21.0 °F 88% 30.63 in 7.0 mi Calm Calm - N/A   Clear